#timestamp,LO_Frequency,Hit,StdDev 
1633104015.3,286046999.6,N
1633104035.2,286046999.1,N
1633104055.0,286046999.0,N
1633104055.9,286046999.0,N
1633104075.8,286046999.6,N
1633104095.6,286046999.4,N
1633104115.4,286046999.4,N
1633104135.3,286046999.4,N
1633104155.1,286046999.5,N
1633104175.8,286046997.9,N
1633104195.7,286046995.3,Y
1633104215.5,286046999.2,P
1633104235.4,286046999.3,P
1633104255.2,286046999.4,P
1633104275.0,286046998.7,Y
1633104275.9,286046998.7,P
1633104295.8,286047000.0,N
1633104315.6,286047002.4,P
1633104335.5,286047000.4,N
1633104355.3,286047000.8,N
1633104375.1,286047001.0,N
1633104395.9,286047000.1,N
1633104415.7,286046999.9,N
1633104435.5,286047000.4,N
1633104455.4,286047000.8,N
1633104475.2,286047000.8,N
1633104495.1,286047000.7,N
1633104496.0,286047000.7,N
1633104515.8,286047000.0,N
1633104535.6,286046999.9,N
1633104555.5,286047000.7,N
1633104575.3,286047000.5,N
1633104595.2,286047000.5,N
1633104615.9,286047001.0,N
1633104635.7,286047001.1,N
1633104655.6,286047000.9,N
1633104675.4,286046998.5,N
1633104695.2,286046998.3,N
1633104715.1,286046998.2,N
1633104716.0,286046998.2,N
1633104735.8,286046998.1,N
1633104755.7,286046998.2,N
1633104775.5,286047001.2,N
1633104795.3,286046998.4,N
1633104815.2,286047000.7,N
1633104835.0,286047000.9,N
1633104835.9,286047000.9,N
1633104855.7,286047001.0,N
1633104875.6,286047000.5,N
1633104895.4,286047000.0,N
1633104915.3,286047001.2,N
1633104935.1,286046998.1,N
1633104936.0,286046998.1,N
1633104955.8,286047000.7,N
1633104975.7,286046999.9,N
1633104995.5,286047000.0,N
1633105015.4,286047000.3,N
1633105035.2,286047000.4,N
1633105055.0,286047002.8,N
1633105055.9,286047002.8,N
1633105075.8,286046999.8,N
1633105095.6,286047000.0,N
1633105115.4,286047002.3,N
1633105135.3,286046999.7,N
1633105155.1,286047000.8,N
1633105175.9,286047002.6,N
1633105195.7,286047002.5,N
1633105215.5,286047002.7,N
1633105235.4,286047002.1,N
1633105255.2,286047002.1,N
1633105275.0,286046999.8,N
1633105275.9,286046999.8,N
1633105295.8,286047002.5,N
1633105315.6,286047001.6,N
1633105335.5,286047001.8,N
1633105355.3,286047001.8,N
1633105375.1,286047001.3,N
1633105395.9,286046999.8,N
1633105415.7,286047002.3,N
1633105435.5,286047002.2,N
1633105455.4,286047002.8,N
1633105475.2,286046999.8,N
1633105495.1,286047002.0,N
1633105496.0,286047002.0,N
1633105515.8,286047002.5,N
1633105535.6,286047002.4,N
1633105555.5,286047001.6,N
1633105575.3,286047004.3,Y
1633105595.2,286047000.3,P
1633105615.9,286047000.0,N
1633105635.7,286047002.8,P
1633105655.6,286047002.4,N
1633105675.4,286047002.3,N
1633105695.2,286047002.4,N
1633105715.1,286046999.8,N
1633105716.0,286046999.8,N
1633105735.8,286047001.1,N
1633105755.7,286047000.8,N
1633105775.5,286047000.5,N
1633105795.3,286046998.5,N
1633105815.2,286047000.6,N
1633105835.0,286047001.0,N
1633105835.9,286047001.0,N
1633105855.8,286047000.8,N
1633105875.6,286046998.1,N
1633105895.4,286047000.7,N
1633105915.3,286046998.1,N
1633105935.1,286046998.1,N
1633105955.8,286047000.6,N
1633105975.7,286047000.0,N
1633105995.5,286047000.8,N
1633106015.4,286047000.4,N
1633106035.2,286047000.6,N
1633106055.0,286047000.6,N
1633106055.9,286047000.6,N
1633106075.8,286046998.3,N
1633106095.6,286047001.1,N
1633106115.4,286047001.2,N
1633106135.3,286046998.1,N
1633106155.1,286046996.6,N
1633106175.9,286046999.6,N
1633106195.7,286046996.5,N
1633106215.5,286046997.0,N
1633106235.4,286046999.1,N
1633106255.2,286047000.8,N
1633106275.0,286047001.1,N
1633106276.0,286047001.1,N
1633106295.8,286046998.3,N
1633106315.6,286047000.7,N
1633106335.5,286047000.4,N
1633106355.3,286047000.5,N
1633106375.1,286047000.9,N
1633106395.9,286047001.1,N
1633106415.7,286047000.6,N
1633106435.6,286047000.5,N
1633106455.4,286046998.5,N
1633106475.2,286047000.9,N
1633106495.1,286047001.0,N
1633106496.0,286047001.0,N
1633106515.8,286047001.0,N
1633106535.6,286047002.5,N
1633106555.5,286047004.3,N
1633106575.3,286047004.1,N
1633106595.2,286047004.2,N
1633106615.9,286047005.5,N
1633106635.7,286047005.6,N
1633106655.6,286047003.5,N
1633106675.4,286047003.2,N
1633106695.2,286047003.0,N
1633106715.1,286047003.6,N
1633106716.0,286047003.6,N
1633106735.8,286047004.0,N
1633106755.7,286047003.4,N
1633106775.5,286047004.1,N
1633106795.3,286047004.1,N
1633106815.2,286047005.8,Y
1633106835.0,286047001.6,P
1633106835.9,286047001.6,P
1633106855.8,286047001.3,P
1633106875.6,286047004.2,Y
1633106895.4,286047000.2,P
1633106915.3,286047002.3,P
1633106935.1,286046999.7,N
1633106955.8,286047000.2,N
1633106975.7,286047002.6,N
1633106995.5,286047002.3,N
1633107015.4,286047002.8,N
1633107035.2,286047002.8,N
1633107055.0,286047002.5,N
1633107055.9,286047002.5,N
1633107075.8,286047001.9,N
1633107095.6,286047001.9,N
1633107115.4,286047002.6,N
1633107135.3,286047001.7,N
1633107155.1,286047001.7,N
1633107175.9,286047004.1,Y
1633107195.7,286047004.2,P
1633107215.5,286047004.0,P
1633107235.4,286047002.4,N
1633107255.2,286047000.3,N
1633107275.0,286047000.9,N
1633107276.0,286047000.9,N
1633107295.8,286047000.4,N
1633107315.6,286047004.3,N
1633107335.5,286047003.1,N
1633107355.3,286047006.0,Y
1633107375.1,286047001.7,P
1633107395.9,286047001.7,P
1633107415.7,286047001.7,P
1633107435.6,286047003.7,Y
1633107455.4,286047002.2,P
1633107475.2,286047002.2,P
1633107495.1,286047001.8,P
1633107496.0,286047001.8,Y
1633107515.8,286046998.3,P
1633107535.7,286047001.1,N
1633107555.5,286046998.9,N
1633107575.3,286046999.4,N
1633107595.2,286046999.5,N
